• In Kazakhstan
  • List of Countries
  • For 7 days
  • Water Temperature
  • Satellite Maps
  • Weather Map
  • News
  • Weather Widgets
  • user-avatar
    Login

    Hourly Weather Cesano Maderno

    Today, 20 April, Saturday

    Time Temperature Precipitation Wind Pressure Humidity
    00:00 +15°C° 0 mm 1 mps 754 mmHg 66%
    01:00 +15°C° 0 mm 1 mps 753 mmHg 68%
    02:00 +14°C° 0 mm 1 mps 753 mmHg 69%
    03:00 +14°C° 0 mm 1 mps 753 mmHg 70%
    04:00 +14°C° 0 mm 1 mps 753 mmHg 71%
    05:00 +14°C° 0 mm 1 mps 753 mmHg 69%
    06:00 +14°C° 0 mm 1 mps 753 mmHg 67%
    07:00 +14°C° 0 mm 1 mps 753 mmHg 66%
    08:00 +16°C° 0 mm 1 mps 753 mmHg 59%
    09:00 +18°C° 0 mm 0 mps 753 mmHg 51%
    10:00 +20°C° 0 mm 0 mps 752 mmHg 44%
    11:00 +21°C° 0 mm 0 mps 752 mmHg 39%
    12:00 +24°C° 0 mm 1 mps 752 mmHg 34%
    13:00 +25°C° 0 mm 1 mps 752 mmHg 30%
    14:00 +25°C° 0 mm 1 mps 751 mmHg 30%
    15:00 +25°C° 0 mm 2 mps 751 mmHg 30%
    16:00 +25°C° 0 mm 2 mps 751 mmHg 30%
    17:00 +23°C° 0 mm 2 mps 751 mmHg 35%
    18:00 +21°C° 0 mm 2 mps 750 mmHg 41%
    19:00 +20°C° 0 mm 2 mps 750 mmHg 46%
    20:00 +20°C° 0 mm 1 mps 751 mmHg 49%
    21:00 +19°C° 0 mm 1 mps 751 mmHg 51%
    22:00 +19°C° 0 mm 1 mps 751 mmHg 54%
    23:00 +18°C° 0 mm 1 mps 751 mmHg 55%

    Tomorrow, 21 April, Sunday

    Time Temperature Precipitation Wind Pressure Humidity
    00:00 +18°C° 0 mm 1 mps 751 mmHg 56%
    01:00 +16°C° 0 mm 1 mps 751 mmHg 57%
    02:00 +16°C° 0 mm 1 mps 751 mmHg 58%
    03:00 +15°C° 0 mm 1 mps 751 mmHg 58%
    04:00 +15°C° 0 mm 1 mps 750 mmHg 59%
    05:00 +15°C° 0 mm 1 mps 750 mmHg 58%
    06:00 +15°C° 0 mm 1 mps 750 mmHg 57%
    07:00 +15°C° 0 mm 1 mps 749 mmHg 57%
    08:00 +18°C° 0 mm 1 mps 749 mmHg 51%
    09:00 +20°C° 0 mm 1 mps 748 mmHg 46%
    10:00 +22°C° 0 mm 1 mps 748 mmHg 41%
    11:00 +22°C° 0 mm 1 mps 747 mmHg 37%
    12:00 +23°C° 0 mm 1 mps 747 mmHg 34%
    13:00 +24°C° 0 mm 2 mps 747 mmHg 31%
    14:00 +24°C° 0 mm 2 mps 746 mmHg 32%
    15:00 +24°C° 0 mm 2 mps 746 mmHg 32%
    16:00 +24°C° 0 mm 2 mps 745 mmHg 33%
    17:00 +23°C° 0 mm 2 mps 745 mmHg 38%
    18:00 +21°C° 0 mm 2 mps 745 mmHg 42%
    19:00 +20°C° 0 mm 2 mps 745 mmHg 47%
    20:00 +20°C° 0 mm 1 mps 745 mmHg 51%
    21:00 +19°C° 0 mm 1 mps 746 mmHg 54%
    22:00 +18°C° 0 mm 1 mps 746 mmHg 57%
    23:00 +18°C° 0 mm 1 mps 746 mmHg 59%

    Day after tomorrow, 22 April, Monday

    Time Temperature Precipitation Wind Pressure Humidity
    00:00 +16°C° 0 mm 1 mps 746 mmHg 60%
    01:00 +15°C° 0 mm 1 mps 746 mmHg 61%
    02:00 +15°C° 0 mm 1 mps 745 mmHg 62%
    03:00 +14°C° 0 mm 1 mps 745 mmHg 63%
    04:00 +14°C° 0 mm 1 mps 744 mmHg 64%
    05:00 +14°C° 0 mm 1 mps 744 mmHg 63%
    06:00 +13°C° 0 mm 0 mps 743 mmHg 62%
    07:00 +14°C° 0 mm 0 mps 743 mmHg 60%
    08:00 +15°C° 0 mm 0 mps 742 mmHg 58%
    09:00 +16°C° 0 mm 1 mps 742 mmHg 55%
    10:00 +18°C° 0 mm 1 mps 741 mmHg 53%
    11:00 +20°C° 0 mm 1 mps 741 mmHg 46%
    12:00 +20°C° 0 mm 2 mps 740 mmHg 40%
    13:00 +21°C° 0 mm 2 mps 739 mmHg 34%
    14:00 +21°C° 0 mm 3 mps 739 mmHg 36%
    15:00 +21°C° 0 mm 3 mps 738 mmHg 38%
    16:00 +21°C° 0 mm 3 mps 738 mmHg 41%
    17:00 +19°C° 0 mm 3 mps 737 mmHg 48%
    18:00 +18°C° 0 mm 4 mps 737 mmHg 56%
    19:00 +17°C° 0 mm 4 mps 737 mmHg 64%
    20:00 +16°C° 0.1 mm 3 mps 737 mmHg 65%
    21:00 +16°C° 0.1 mm 2 mps 737 mmHg 67%
    22:00 +15°C° 0.1 mm 1 mps 737 mmHg 69%
    23:00 +15°C° 0.5 mm 1 mps 737 mmHg 71%

    23 April, Tuesday

    Time Temperature Precipitation Wind Pressure Humidity
    00:00 +15°C° 0.5 mm 1 mps 736 mmHg 74%
    01:00 +15°C° 0.5 mm 1 mps 736 mmHg 77%
    02:00 +14°C° 0.5 mm 1 mps 735 mmHg 76%
    03:00 +14°C° 0.5 mm 1 mps 735 mmHg 76%
    04:00 +14°C° 0.5 mm 1 mps 734 mmHg 75%
    05:00 +14°C° 0.4 mm 1 mps 734 mmHg 76%
    06:00 +14°C° 0.4 mm 1 mps 734 mmHg 77%
    07:00 +14°C° 0.4 mm 1 mps 734 mmHg 78%
    08:00 +14°C° 0.3 mm 1 mps 733 mmHg 78%
    09:00 +14°C° 0.3 mm 1 mps 733 mmHg 78%
    10:00 +14°C° 0.3 mm 1 mps 733 mmHg 78%
    11:00 +15°C° 0.2 mm 1 mps 733 mmHg 75%
    12:00 +16°C° 0.2 mm 1 mps 733 mmHg 72%
    13:00 +16°C° 0.2 mm 1 mps 733 mmHg 69%
    14:00 +16°C° 0.1 mm 1 mps 733 mmHg 70%
    15:00 +16°C° 0.1 mm 1 mps 733 mmHg 71%
    16:00 +16°C° 0.1 mm 1 mps 733 mmHg 73%
    17:00 +16°C° 0.1 mm 1 mps 733 mmHg 74%
    18:00 +16°C° 0.1 mm 1 mps 733 mmHg 75%
    19:00 +15°C° 0.1 mm 0 mps 734 mmHg 76%
    20:00 +15°C° 1.6 mm 0 mps 734 mmHg 79%
    21:00 +15°C° 1.6 mm 1 mps 735 mmHg 81%
    22:00 +15°C° 1.6 mm 1 mps 736 mmHg 84%
    23:00 +15°C° 1.6 mm 1 mps 736 mmHg 85%

    24 April, Wednesday

    Time Temperature Precipitation Wind Pressure Humidity
    00:00 +15°C° 1.6 mm 1 mps 737 mmHg 87%
    01:00 +14°C° 1.6 mm 1 mps 737 mmHg 88%
    02:00 +14°C° 0.6 mm 1 mps 737 mmHg 89%
    03:00 +14°C° 0.6 mm 1 mps 738 mmHg 89%
    04:00 +14°C° 0.6 mm 1 mps 738 mmHg 90%
    05:00 +14°C° 0.2 mm 1 mps 738 mmHg 90%
    06:00 +14°C° 0.2 mm 1 mps 739 mmHg 90%
    07:00 +14°C° 0.2 mm 1 mps 739 mmHg 89%
    08:00 +15°C° 0.2 mm 1 mps 739 mmHg 85%
    09:00 +16°C° 0.2 mm 2 mps 740 mmHg 81%
    10:00 +16°C° 0.2 mm 2 mps 740 mmHg 77%
    11:00 +18°C° 0.5 mm 1 mps 740 mmHg 73%
    12:00 +19°C° 0.5 mm 1 mps 740 mmHg 70%
    13:00 +20°C° 0.5 mm 1 mps 740 mmHg 66%
    14:00 +20°C° 0.5 mm 1 mps 740 mmHg 63%
    15:00 +21°C° 0.5 mm 1 mps 740 mmHg 61%
    16:00 +21°C° 0.5 mm 1 mps 740 mmHg 58%
    17:00 +21°C° 0.5 mm 1 mps 740 mmHg 62%
    18:00 +20°C° 0.5 mm 1 mps 741 mmHg 66%
    19:00 +18°C° 0.5 mm 2 mps 741 mmHg 70%
    20:00 +18°C° 1.2 mm 2 mps 741 mmHg 74%
    21:00 +17°C° 1.2 mm 2 mps 742 mmHg 77%
    22:00 +17°C° 1.2 mm 3 mps 742 mmHg 80%
    23:00 +17°C° 1.3 mm 3 mps 742 mmHg 82%

    25 April, Thursday

    Time Temperature Precipitation Wind Pressure Humidity
    00:00 +16°C° 1.3 mm 3 mps 742 mmHg 83%
    01:00 +16°C° 1.3 mm 3 mps 742 mmHg 84%
    02:00 +16°C° 0.7 mm 3 mps 742 mmHg 85%
    03:00 +16°C° 0.7 mm 3 mps 742 mmHg 86%
    04:00 +14°C° 0.7 mm 3 mps 742 mmHg 86%
    05:00 +14°C° 0.7 mm 3 mps 742 mmHg 88%
    06:00 +14°C° 0.7 mm 3 mps 742 mmHg 89%
    07:00 +14°C° 0.7 mm 3 mps 742 mmHg 90%
    08:00 +14°C° 3.1 mm 3 mps 742 mmHg 90%
    09:00 +14°C° 3.1 mm 3 mps 742 mmHg 90%
    10:00 +14°C° 3.1 mm 3 mps 742 mmHg 90%
    11:00 +15°C° 2.5 mm 2 mps 742 mmHg 88%
    12:00 +15°C° 2.5 mm 2 mps 741 mmHg 86%
    13:00 +16°C° 2.5 mm 1 mps 741 mmHg 84%
    14:00 +16°C° 1.2 mm 1 mps 741 mmHg 83%
    15:00 +16°C° 1.2 mm 1 mps 740 mmHg 81%
    16:00 +16°C° 1.2 mm 2 mps 740 mmHg 80%
    17:00 +16°C° 2.7 mm 1 mps 740 mmHg 82%
    18:00 +15°C° 2.7 mm 1 mps 740 mmHg 85%
    19:00 +15°C° 2.7 mm 1 mps 740 mmHg 87%
    20:00 +15°C° 1.2 mm 1 mps 740 mmHg 89%
    21:00 +15°C° 1.2 mm 1 mps 740 mmHg 90%
    22:00 +14°C° 1.2 mm 1 mps 740 mmHg 92%
    23:00 +14°C° 0.7 mm 2 mps 740 mmHg 93%
    Show more